Location: Unspecified
(41.1637°N, 24.2901°E)
Time: 03:02:09
(UTC+01:00)

ISS - Pass Details

Date: 12 November 2025
Orbit: 414 x 420 km, 51.6° (Epoch: 18 November)

Event Time Altitude Azimuth Distance (km) Brightness Sun altitude
Rises 17:22:41 0° 211° (SSW) 2,337 0.7 -14.5°
Reaches altitude 10° 17:24:53 10° 200° (SSW) 1,479 -0.6 -14.9°
Maximum altitude 17:27:52 31° 136° (SE) 742 -2.8 -15.5°
Enters shadow 17:28:22 30° 117° (ESE) 772 -2.9 -15.6°
